AGROMETEOROLOŠKI PORTAL

vinorodna pokrajina

Temelj dobrega kmetovanja

Pregled podatkov za lokacijo Selo, meteorološka postaja 37838

Pregled senzorjev na lokaciji

ID Ime Zadnja
vrednost
Datum in čas
meritve
(lokalni čas)
Tip
senzorja
4044 Omočenost lista (1,5 m) (U) 5 U 7.10.2022 21:30 A730WET
5049 Padavine (mm) 0 mm 7.10.2022 21:30 Generic 0.2 mm
4047 Relativna zračna vlaga (2 m) (%RH) 80 %RH 7.10.2022 21:30 50YA
4046 Temperatura (2 m) (°C) 15,1 °C 7.10.2022 21:30 50YA

Pregled podatkov zadnjih 24 ur

Zap.
št.
Datum in čas
(lokalni čas)
Selo
Omočenost
lista
(1,5
m)
Padavine Relativna
zračna
vlaga
(2
m)
Temperatura
(2
m)
1 7.10.2022 21:30 5 0 79,9 15,1
2 7.10.2022 21:00 4 0 79,3 15,3
3 7.10.2022 20:30 8 0 80 15,5
4 7.10.2022 20:00 10 0 80,3 15,8
5 7.10.2022 19:30 8 0 80,2 16
6 7.10.2022 19:00 1 0 77,9 16,7
7 7.10.2022 18:30 1 0 75,6 17,5
8 7.10.2022 18:00 0 0 70,8 18,8
9 7.10.2022 17:30 0 0 67,8 19,5
10 7.10.2022 17:00 0 0 66,1 19,9
11 7.10.2022 16:30 0 0 65,1 20,1
12 7.10.2022 16:00 0 0 64,5 20,1
13 7.10.2022 15:30 0 0 65,7 20,1
14 7.10.2022 15:00 0 0 65,3 20,5
15 7.10.2022 14:30 0 0 65,7 20,4
16 7.10.2022 14:00 0 0 66,2 19,8
17 7.10.2022 13:30 0 0 69,2 19,6
18 7.10.2022 13:00 0 0 72,6 18,8
19 7.10.2022 12:30 0 0 71,4 18,8
20 7.10.2022 12:00 0 0 73,6 18,3
21 7.10.2022 11:30 0 0 75,1 17,4
22 7.10.2022 11:00 0 0 78,1 17,1
23 7.10.2022 10:30 0 0 77,5 16,8
24 7.10.2022 10:00 0 0 77 16,8
25 7.10.2022 09:30 9 0 78,4 16,9
26 7.10.2022 09:00 10 0 80,3 16,6
27 7.10.2022 08:30 10 0 85,9 15,7
28 7.10.2022 08:00 10 0 95,8 12,9
29 7.10.2022 07:30 10 0 97,3 12,1
30 7.10.2022 07:00 10 0 98,1 11,6
31 7.10.2022 06:30 10 0 99 11,2
32 7.10.2022 06:00 10 0 98,2 10,3
33 7.10.2022 05:30 10 0 95 11,5
34 7.10.2022 05:00 10 0 91,6 13,1
35 7.10.2022 04:30 10 0 91,4 13,1
36 7.10.2022 04:00 10 0 90,6 13,4
37 7.10.2022 03:30 10 0 88,5 13,8
38 7.10.2022 03:00 10 0 84,2 14,5
39 7.10.2022 02:30 10 0 83,4 14,5
40 7.10.2022 02:00 2 0 80,4 15,1
41 7.10.2022 01:30 3 0 80,7 15
42 7.10.2022 01:00 2 0 78,1 15,6
43 7.10.2022 00:30 2 0 78,3 15,4
44 7.10.2022 00:00 1 0 75,5 16
45 6.10.2022 23:30 1 0 76,7 16,1
46 6.10.2022 23:00 1 0 78,1 15,9